Regional Weather Roundup
Issued by NWS

Home | Current Version | Previous Version | Graphics & Text | Print | Product List | Glossary On
Versions: 1 2 3 4 5 6 7 8 9 10 11 12 13 14 15 16 17 18 19 20 21 22 23 24 25 26 27 28 29 30 31 32 33 34 35 36 37 38 39 40 41 42 43 44 45 46 47 48 49 50
977
ASUS44 KLIX 210101
RWRLA
LOUISIANA WEATHER ROUNDUP
NATIONAL WEATHER SERVICE NEW ORLEANS LA
800 PM CDT SAT SEP 20 2014

NOTE: "FAIR" INDICATES FEW OR NO CLOUDS BELOW 12,000 FEET WITH NO
      SIGNIFICANT WEATHER AND/OR OBSTRUCTIONS TO VISIBILITY.
      SKY/WX - SKY CONDITION AND SIGNIFICANT WEATHER.
      TMP - AIR TEMPERATURE.    DP   - DEWPOINT TEMPERATURE.
      RH  - RELATIVE HUMIDITY.  PRES - PRESSURE.
      HX  - HEAT INDEX.         WCI  - WIND CHILL INDEX.

*  THESE STATIONS ARE NOT NWS OR FAA STATIONS AND ARE NOT UNDER
   NWS QUALITY CONTROL.

LAZ040-048-061>063-065-066-069-210200-
SOUTHEAST LOUISIANA

CITY           SKY/WX    TMP DP  RH WIND       PRES   REMARKS
N.O. AUDUBON     N/A     81  70  69 MISG        N/A
N.O. INTL ARPT PTCLDY    81  68  64 E7        29.94S
N.O. LAKEFRONT CLEAR     81  71  71 E9        29.95R
N.O. DOWNTOWN* FAIR      82  66  57 SE3       29.95S
SLIDELL        CLEAR     77  71  82 E3        29.95R
BATON ROUGE    CLEAR     76  71  85 NE3       29.94S
BOOTHVILLE     PTCLDY    80  72  76 E13G21    29.95R
BELLE CHASSE   PTCLDY    77  69  76 E5        29.94R
BOGALUSA*      FAIR      76  70  81 CALM      29.97R
GALLIANO*      NOT AVBL
NEW ROADS*     FAIR      77  70  78 E3        29.94S
GONZALES*      FAIR      75  75 100 CALM      29.94R
HAMMOND*       NOT AVBL
HOUMA*         CLEAR     76  61  59 E3        29.94R
PORT FOURCHON* PTCLDY    81  72  74 E14       29.96S

$$

LAZ041-044-053-054-210200-
SOUTHWEST LOUISIANA

CITY           SKY/WX    TMP DP  RH WIND       PRES   REMARKS
LAKE CHARLES   CLEAR     80  69  69 E5        29.93R
LAFAYETTE      CLEAR     79  72  79 CALM      29.94R
PATTERSON      CLEAR     75  70  83 CALM      29.96S
SALT POINT       N/A     81  72  74 CALM      29.93R
NEW IBERIA     CLEAR     79  69  71 E3        29.94R
CHENAULT AIRPK NOT AVBL

$$

LAZ027-028-210200-
CENTRAL LOUISIANA

CITY           SKY/WX    TMP DP  RH WIND       PRES   REMARKS
FORT POLK      CLEAR     77  69  76 CALM      29.95R
ALEXANDRIA INT CLEAR     77  69  76 CALM      29.93R
ALEXANDRIA     CLEAR     75  72  90 CALM      29.95R

$$

LAZ001-002-210200-
NORTHWEST LOUISIANA

CITY           SKY/WX    TMP DP  RH WIND       PRES   REMARKS
SHREVEPORT     CLEAR     81  64  56 CALM      29.94S
BARKSDALE AFB  CLEAR     80  67  65 SE3       29.95R
DTN SHREVEPORT CLEAR     82  64  54 SE3       29.94S

$$

LAZ014-016-210200-
NORTHEAST LOUISIANA

CITY           SKY/WX    TMP DP  RH WIND       PRES   REMARKS
MONROE         PTCLDY    78  71  79 CALM      29.96R
TALLULAH       CLEAR     74  69  85 CALM      29.96R

$$




USA.gov is the U.S. government's official web portal to all federal, state and local government web resources and services.